Augusta, Maine, United States (04330)
Lat: 44.31N, Lon: 69.78W
Wx Zone: MEZ021
Local Info
Past Weather Observations for Sunday, July 20, 2014

NOTE: This archive is for the closest National Weather Service station to Augusta. Information may differ from the station used for current weather conditions.

Click here for Long-term Archive

Time Weather Temperature Dewpoint Humidity Pressure Winds Precip Visibility
23:53
Clear
61°F / 16°C 57°F / 14°C 88% 30.21 in
(1023 mb)
Calm - 10SM
22:53
Clear
63°F / 17°C 59°F / 15°C 88% 30.21 in
(1023 mb)
Calm - 10SM
21:53
Clear
63°F / 17°C 61°F / 16°C 94% 30.21 in
(1023 mb)
Calm - 10SM
20:53
Clear
64°F / 18°C 61°F / 16°C 88% 30.21 in
(1023 mb)
Calm - 10SM
19:53
Partly Cloudy
66°F / 19°C 61°F / 16°C 83% 30.21 in
(1023 mb)
SE 4.6 mph
(SE 7 kph)
- 10SM
18:53
Mostly Cloudy
70°F / 21°C 63°F / 17°C 78% 30.18 in
(1022 mb)
N 3.5 mph
(N 6 kph)
- 10SM
17:53
Overcast
70°F / 21°C 63°F / 17°C 78% 30.21 in
(1023 mb)
ENE 4.6 mph
(ENE 7 kph)
- 10SM
16:53
Overcast
70°F / 21°C 63°F / 17°C 78% 30.21 in
(1023 mb)
NE 3.5 mph
(NE 6 kph)
- 10SM
15:53
Overcast
70°F / 21°C 61°F / 16°C 73% 30.21 in
(1023 mb)
NE 3.5 mph
(NE 6 kph)
- 10SM
14:53
Overcast
70°F / 21°C 61°F / 16°C 73% 30.21 in
(1023 mb)
NE 5.8 mph
(NE 9 kph)
- 10SM
13:53
Mostly Cloudy
70°F / 21°C 63°F / 17°C 78% 30.21 in
(1023 mb)
NE 4.6 mph
(NE 7 kph)
0.00 in
(0.00 mm)
10SM
12:53
Overcast
Light Rain
70°F / 21°C 63°F / 17°C 78% 30.21 in
(1023 mb)
NNW 5.8 mph
(NNW 9 kph)
0.00 in
(0.00 mm)
10SM
11:53
Overcast
Light Rain
70°F / 21°C 63°F / 17°C 78% 30.24 in
(1024 mb)
Calm 0.00 in
(0.00 mm)
10SM
10:53
Overcast
70°F / 21°C 61°F / 16°C 73% 30.24 in
(1024 mb)
NNW 3.5 mph
(NNW 6 kph)
- 10SM
09:53
Partly Cloudy
70°F / 21°C 57°F / 14°C 64% 30.24 in
(1024 mb)
Calm - 10SM
08:53
Overcast
66°F / 19°C 61°F / 16°C 83% 30.24 in
(1024 mb)
SSW 3.5 mph
(SSW 6 kph)
0.00 in
(0.00 mm)
10SM
07:53
Overcast
Light Rain
66°F / 19°C 61°F / 16°C 83% 30.24 in
(1024 mb)
Calm 0.00 in
(0.00 mm)
10SM
06:53
Clear
64°F / 18°C 61°F / 16°C 88% 30.24 in
(1024 mb)
NNW 3.5 mph
(NNW 6 kph)
- 10SM
05:53
Clear
63°F / 17°C 61°F / 16°C 94% 30.24 in
(1024 mb)
SSE 4.6 mph
(SSE 7 kph)
- 10SM
05:16
Partly Cloudy
63°F / 17°C 61°F / 16°C 94% 30.24 in
(1024 mb)
Calm - 9SM
04:53
Mostly Cloudy
61°F / 16°C 61°F / 16°C 100% 30.24 in
(1024 mb)
SSE 3.5 mph
(SSE 6 kph)
- 8SM
04:50
Partly Cloudy
61°F / 16°C 61°F / 16°C 100% 30.24 in
(1024 mb)
Calm - 8SM
03:53
Clear
61°F / 16°C 61°F / 16°C 100% 30.21 in
(1023 mb)
SSE 3.5 mph
(SSE 6 kph)
- 9SM
02:53
Clear
63°F / 17°C 59°F / 15°C 88% 30.24 in
(1024 mb)
SW 4.6 mph
(SW 7 kph)
- 10SM
01:53
Clear
63°F / 17°C 59°F / 15°C 88% 30.21 in
(1023 mb)
S 3.5 mph
(S 6 kph)
- 10SM
00:53
Clear
63°F / 17°C 61°F / 16°C 94% 30.24 in
(1024 mb)
Calm - 10SM
Time Weather Temperature Dewpoint Humidity Pressure Winds Precip Visibility


Weather for websites

WeatherForYou.com, LLC is not responsible for any damages or problems caused by this service. Current weather conditions are obtained from the closest station including government and personal stations which may have varying degrees of accuracy. Weather forecasts are derived from the NOAA NDFD. Like all things, this site belongs to Jesus Christ... He just trusts me to maintain it. If you have any questions or comments email webmaster@weatherforyou.com

Copyright © 2014, WeatherForYou.com LLC. All rights reserved.